Flag for Brazil Weather past 2 weeks in Porto Velho, Rondônia, Brazil

Now
75 °F

Passing clouds.


Feels Like: 75 °F
Forecast: 71 / 83 °F
Wind: 6 mph from South

Location: Porto Velho Aeroporto

Current Time: Jul 4, 2015 at 9:01:29 PM

Latest Report: Jul 4, 2015 at 8:00 PM


Visibility: N/A

Pressure: 29.89 "Hg

Humidity: 89%

Dew point: 72 °F

Location of Porto VelhoLocation

Historic Weather in Porto Velho — Graph

°F

Porto Velho temperature yesterday

Maximum temperature yesterday: 91 °F (at 1:00 PM)
Minimum temperature yesterday: 68 °F (at 4:00 AM)
Average temperature yesterday: 79 °F

Past Weeks' High & Low Weather Summary

 TemperatureHumidityPressure
High91 °F (Jun 23, 3:00 PM)100% (Jun 23, 1:00 AM)30.07 "Hg (Jun 23, 1:00 AM)
Low66 °F (Jun 20, 5:00 AM)30% (Jun 26, 2:00 PM)29.80 "Hg (Jul 2, 5:00 PM)
Average78 °F73%29.94 "Hg
* Reported Jun 19 8:00 PM — Jul 4 8:00 PM, Porto Velho, Weather by CustomWeather, © 2015

Note: Actual official high and low records may vary slightly from our data, if they occured in-between our weather recording intervals... More about our weather records

Advertising

Porto Velho weather history for previous 24 hours

 ConditionsComfort  
Time TempWeatherWind HumidityBarometerVisibility
8:00 PM
Sat, Jul 4
75 °FPassing clouds.6 mph89%29.89 "HgN/A
7:00 PM75 °FPassing clouds.5 mph89%29.86 "HgN/A
6:00 PM77 °FScattered clouds.3 mph83%29.83 "HgN/A
5:00 PM81 °FScattered clouds.2 mph74%29.80 "HgN/A
4:00 PM81 °FScattered clouds.2 mph74%29.80 "HgN/A
3:00 PM77 °FScattered clouds.No wind83%29.83 "HgN/A
2:00 PM75 °FScattered clouds.6 mph89%29.86 "HgN/A
1:00 PM73 °FLight rain. Partly sunny.3 mph89%29.89 "HgN/A
12:00 PM82 °FScattered clouds.15 mph70%29.92 "HgN/A
11:00 AM82 °FScattered clouds.6 mph74%29.92 "HgN/A
10:00 AM84 °FScattered clouds.5 mph66%29.92 "HgN/A
9:00 AM82 °FSunny.3 mph70%29.92 "Hg10 mi
8:00 AM77 °FSunny.3 mph83%29.92 "Hg10 mi
7:00 AM72 °FClear.No wind94%29.89 "Hg5 mi
6:00 AM72 °FClear.No wind94%29.86 "Hg5 mi
5:00 AM72 °FClear.No wind94%29.86 "Hg10 mi
4:00 AM72 °FClear.No wind94%29.86 "Hg10 mi
3:00 AM73 °FClear.No wind89%29.86 "Hg10 mi
2:00 AM73 °FClear.No wind89%29.86 "Hg10 mi
1:00 AM73 °FClear.No wind89%29.86 "Hg10 mi
12:00 AM73 °FClear.No wind94%29.86 "Hg10 mi
11:00 PM
Fri, Jul 3
73 °FClear.No wind89%29.86 "Hg10 mi
10:00 PM75 °FClear.No wind83%29.86 "Hg10 mi
9:00 PM75 °FClear.No wind83%29.86 "Hg10 mi
Weather by CustomWeather, © 2015

See weather overviewHow to use our weather pages